Weather History for KARV - August, 2013

Change the Weather History Date:

Wednesday, August 14, 2013

  Actual Average Record
Temperature  
Mean Temperature 54 °F -  
Max Temperature 71 °F 75 °F 92 °F (1944)
Min Temperature 39 °F 52 °F 31 °F (1964)
Degree Days  
Heating Degree Days 11    
Growing Degree Days 4 (Base 50)    
Moisture  
Dew Point 44 °F    
Average Humidity 71    
Maximum Humidity 93    
Minimum Humidity 38    
Precipitation  
Precipitation 0.00 in - - ()
Sea Level Pressure  
Sea Level Pressure 30.18 in    
Wind  
Wind Speed 2 mph (NW)    
Max Wind Speed 13 mph    
Max Gust Speed 17 mph    
Visibility 10 miles    
Events      
Averages and records for this station are not official NWS values.
T = Trace of Precipitation, MM = Missing Value Source: NWS Daily Summary

Daily Weather History Graph

Daily Weather History Graph

Search for Another Location

Airport or City:

Trip Planner

Search our weather history database for the weather conditions in past years. The results will help you decide how hot, cold, wet, or windy it might be!

Date:

Astronomy

Aug. 14, 2013 Rise Set
Actual Time 5:57 AM CDT 8:08 PM CDT
Civil Twilight 5:24 AM CDT 8:41 PM CDT
Nautical Twilight 4:44 AM CDT 9:21 PM CDT
Astronomical Twilight 3:59 AM CDT 10:06 PM CDT
Moon 2:24 PM CDT (8/14) No Moon Set
Length of Visible Light 15h 16m
Length of Day
14h 10m
First Quarter, 53% of the Moon is Illuminated
Aug 14
First Quarter
Aug 20
Full
Aug 28
Last Quarter
Sep 5
New
Sep 12
First Quarter

Hourly Weather History & Observations

Time (CDT) Temp. Dew Point Humidity Pressure Visibility Wind Dir Wind Speed Gust Speed Precip Events Conditions
12:15 AM 42.8 °F 40.5 °F 91% 30.21 in 10.0 mi Calm Calm - N/A   Clear
12:35 AM 42.4 °F 40.1 °F 91% 30.21 in 10.0 mi Calm Calm - N/A   Clear
12:55 AM 42.3 °F 40.1 °F 92% 30.21 in 10.0 mi Calm Calm - N/A   Clear
1:15 AM 41.5 °F 39.4 °F 92% 30.21 in 10.0 mi Calm Calm - N/A   Clear
1:35 AM 42.1 °F 40.1 °F 93% 30.21 in 10.0 mi Calm Calm - N/A   Clear
1:55 AM 41.5 °F 39.4 °F 92% 30.21 in 10.0 mi Calm Calm - N/A   Clear
2:15 AM 41.5 °F 38.7 °F 89% 30.21 in 10.0 mi Calm Calm - N/A   Clear
2:35 AM 41.5 °F 39.6 °F 93% 30.21 in 10.0 mi Calm Calm - N/A   Clear
2:55 AM 41.5 °F 39.4 °F 92% 30.21 in 10.0 mi Calm Calm - N/A   Clear
3:15 AM 39.2 °F 37.0 °F 92% 30.21 in 10.0 mi Calm Calm - N/A   Clear
3:35 AM 39.6 °F 37.2 °F 91% 30.21 in 10.0 mi Calm Calm - N/A   Mostly Cloudy
3:55 AM 41.5 °F 39.2 °F 91% 30.21 in 10.0 mi Calm Calm - N/A   Mostly Cloudy
4:15 AM 41.5 °F 39.2 °F 91% 30.20 in 10.0 mi Calm Calm - N/A   Scattered Clouds
4:35 AM 39.7 °F 37.2 °F 91% 30.21 in 10.0 mi Calm Calm - N/A   Clear
4:55 AM 39.4 °F 37.4 °F 93% 30.22 in 4.0 mi Calm Calm - N/A   Scattered Clouds
5:15 AM 39.2 °F 37.0 °F 92% 30.22 in 10.0 mi Calm Calm - N/A   Mostly Cloudy
5:35 AM 42.1 °F 39.9 °F 92% 30.22 in 10.0 mi Calm Calm - N/A   Overcast
5:55 AM 41.9 °F 39.6 °F 91% 30.22 in 10.0 mi Calm Calm - N/A   Overcast
6:15 AM 43.0 °F 40.6 °F 91% 30.22 in 10.0 mi Calm Calm - N/A   Overcast
6:35 AM 44.6 °F 42.1 °F 91% 30.23 in 10.0 mi Calm Calm - N/A   Overcast
6:55 AM 45.9 °F 43.5 °F 92% 30.23 in 10.0 mi Calm Calm - N/A   Overcast
7:15 AM 49.3 °F 46.6 °F 90% 30.23 in 10.0 mi Calm Calm - N/A   Overcast
7:35 AM 49.3 °F 46.6 °F 90% 30.23 in 10.0 mi Calm Calm - N/A   Overcast
7:55 AM 51.8 °F 49.1 °F 90% 30.23 in 10.0 mi Calm Calm - N/A   Overcast
8:15 AM 51.8 °F 48.0 °F 87% 30.22 in 10.0 mi Calm Calm - N/A   Overcast
8:35 AM 51.8 °F 47.5 °F 85% 30.22 in 10.0 mi WSW 3.5 mph - N/A   Overcast
8:55 AM 53.6 °F 48.4 °F 82% 30.22 in 10.0 mi Calm Calm - N/A   Overcast
9:15 AM 56.3 °F 49.1 °F 77% 30.22 in 10.0 mi Calm Calm - N/A   Overcast
9:35 AM 56.8 °F 48.9 °F 75% 30.22 in 10.0 mi Calm Calm - N/A   Overcast
9:55 AM 56.8 °F 46.8 °F 69% 30.21 in 10.0 mi Calm Calm - N/A   Overcast
10:15 AM 59.9 °F 45.7 °F 59% 30.21 in 10.0 mi NW 5.8 mph - N/A   Overcast
10:35 AM 61.9 °F 46.4 °F 57% 30.21 in 10.0 mi West 6.9 mph - N/A   Mostly Cloudy
10:55 AM 61.9 °F 46.6 °F 57% 30.20 in 10.0 mi WNW 4.6 mph - N/A   Overcast
11:15 AM 62.1 °F 46.6 °F 57% 30.20 in 10.0 mi NNW 5.8 mph - N/A   Scattered Clouds
11:35 AM 63.1 °F 46.4 °F 54% 30.20 in 10.0 mi NNW 5.8 mph 9.2 mph N/A   Clear
11:55 AM 62.2 °F 46.6 °F 57% 30.19 in 10.0 mi WNW 8.1 mph - N/A   Scattered Clouds
12:15 PM 61.9 °F 46.6 °F 57% 30.20 in 10.0 mi Calm Calm - N/A   Mostly Cloudy
12:35 PM 63.7 °F 44.6 °F 50% 30.19 in 10.0 mi West 8.1 mph - N/A   Overcast
12:55 PM 64.6 °F 45.9 °F 51% 30.19 in 10.0 mi North 8.1 mph - N/A   Overcast
1:15 PM 63.3 °F 45.5 °F 52% 30.19 in 10.0 mi WNW 8.1 mph - N/A   Mostly Cloudy
1:35 PM 64.0 °F 45.7 °F 51% 30.18 in 10.0 mi North 4.6 mph - N/A   Mostly Cloudy
1:55 PM 67.1 °F 46.4 °F 47% 30.17 in 10.0 mi WSW 8.1 mph - N/A   Mostly Cloudy
2:55 PM 67.6 °F 44.2 °F 43% 30.16 in 10.0 mi NNW 9.2 mph - N/A   Mostly Cloudy
3:15 PM 67.5 °F 43.0 °F 41% 30.15 in 10.0 mi NNW 11.5 mph - N/A   Scattered Clouds
3:35 PM 69.8 °F 43.2 °F 38% 30.15 in 10.0 mi WNW 4.6 mph 16.1 mph N/A   Scattered Clouds
3:55 PM 69.1 °F 43.0 °F 39% 30.15 in 10.0 mi NNW 12.7 mph 17.3 mph N/A   Scattered Clouds
4:15 PM 69.4 °F 43.0 °F 38% 30.15 in 10.0 mi NW 9.2 mph - N/A   Scattered Clouds
4:35 PM 68.0 °F 42.6 °F 40% 30.15 in 10.0 mi NNW 8.1 mph 17.3 mph N/A   Clear
4:55 PM 67.1 °F 41.2 °F 39% 30.15 in 10.0 mi NNW 8.1 mph - N/A   Clear
5:15 PM 66.7 °F 41.7 °F 40% 30.15 in 10.0 mi North 9.2 mph - N/A   Clear
5:35 PM 67.1 °F 42.1 °F 40% 30.15 in 10.0 mi North 8.1 mph - N/A   Clear
5:55 PM 64.8 °F 42.1 °F 44% 30.14 in 10.0 mi NW 6.9 mph - N/A   Clear
6:15 PM 65.3 °F 40.6 °F 40% 30.14 in 10.0 mi NNW 6.9 mph - N/A   Clear
6:35 PM 64.6 °F 40.6 °F 42% 30.14 in 10.0 mi North 8.1 mph - N/A   Clear
6:55 PM 64.4 °F 41.9 °F 44% 30.14 in 10.0 mi North 5.8 mph - N/A   Clear
7:15 PM 63.1 °F 43.2 °F 48% 30.14 in 10.0 mi North 3.5 mph - N/A   Clear
7:35 PM 61.9 °F 44.2 °F 52% 30.13 in 10.0 mi Calm Calm - N/A   Clear
7:55 PM 59.9 °F 46.6 °F 61% 30.13 in 10.0 mi Calm Calm - N/A   Clear
8:15 PM 56.8 °F 47.3 °F 70% 30.13 in 10.0 mi Calm Calm - N/A   Clear
8:35 PM 56.8 °F 48.6 °F 74% 30.14 in 10.0 mi Calm Calm - N/A   Clear
8:55 PM 56.3 °F 49.1 °F 77% 30.14 in 10.0 mi Calm Calm - N/A   Clear
9:15 PM 53.2 °F 47.1 °F 80% 30.14 in 10.0 mi Calm Calm - N/A   Clear
9:35 PM 51.8 °F 46.0 °F 81% 30.14 in 10.0 mi Calm Calm - N/A   Clear
9:55 PM 51.8 °F 46.8 °F 83% 30.14 in 10.0 mi Calm Calm - N/A   Clear
10:15 PM 51.1 °F 47.7 °F 88% 30.13 in 10.0 mi Calm Calm - N/A   Clear
10:35 PM 51.8 °F 47.5 °F 85% 30.14 in 10.0 mi Calm Calm - N/A   Clear
10:55 PM 49.3 °F 46.2 °F 89% 30.14 in 10.0 mi Calm Calm - N/A   Scattered Clouds
11:15 PM 49.3 °F 46.4 °F 90% 30.13 in 10.0 mi Calm Calm - N/A   Scattered Clouds
11:35 PM 49.8 °F 46.4 °F 88% 30.13 in 10.0 mi Calm Calm - N/A   Scattered Clouds
11:55 PM 49.3 °F 46.0 °F 89% 30.13 in 10.0 mi Calm Calm - N/A   Scattered Clouds